SFY1TM EGBJ-EGFF

Flight info

Callsign SFY1TM
Flight time N/A
Altitude 8000
Route BADIM DCT ICCIN DCT CDF
Aircraft DA42/L-SDFGRY/C

Departure

Time 2026-04-23 13:12
Airport Gloucestershire Airport (EGBJ)

Arrival

Time N/A
Airport Cardiff International Airport (EGFF)
Time Latitude Longitude Altitude Speed Heading
2026-04-23 13:06 51.88927 -2.16354 88 ft 0 kts 352°
2026-04-23 13:07 51.88929 -2.16355 88 ft 1 kts 357°
2026-04-23 13:07 51.88939 -2.16365 90 ft 4 kts 305°
2026-04-23 13:08 51.88957 -2.16412 88 ft 9 kts 265°
2026-04-23 13:08 51.88943 -2.16502 90 ft 10 kts 189°
2026-04-23 13:08 51.88872 -2.16582 88 ft 16 kts 240°
2026-04-23 13:08 51.88858 -2.16751 88 ft 17 kts 271°
2026-04-23 13:09 51.88910 -2.16942 91 ft 19 kts 303°
2026-04-23 13:09 51.88994 -2.17129 91 ft 22 kts 314°
2026-04-23 13:09 51.89092 -2.17220 89 ft 17 kts 335°
2026-04-23 13:09 51.89188 -2.17330 92 ft 18 kts 321°
2026-04-23 13:10 51.89266 -2.17467 92 ft 10 kts 310°
2026-04-23 13:10 51.89272 -2.17478 89 ft 0 kts 314°
2026-04-23 13:11 51.89278 -2.17486 91 ft 4 kts 321°
2026-04-23 13:11 51.89316 -2.17543 88 ft 10 kts 317°
2026-04-23 13:11 51.89354 -2.17547 87 ft 4 kts 81°
2026-04-23 13:11 51.89354 -2.17545 87 ft 0 kts 82°
2026-04-23 13:12 51.89371 -2.17281 89 ft 53 kts 84°
2026-04-23 13:12 51.89424 -2.16523 202 ft 74 kts 84°
2026-04-23 13:12 51.89477 -2.15656 485 ft 80 kts 85°
2026-04-23 13:12 51.89539 -2.14710 738 ft 88 kts 84°
2026-04-23 13:13 51.89603 -2.13746 1014 ft 87 kts 82°
2026-04-23 13:13 51.89681 -2.12719 1201 ft 94 kts 81°
2026-04-23 13:13 51.89770 -2.11672 1490 ft 96 kts 84°
2026-04-23 13:13 51.89668 -2.10662 1820 ft 92 kts 124°
2026-04-23 13:14 51.89083 -2.10183 2081 ft 104 kts 161°
2026-04-23 13:14 51.88318 -2.10052 2359 ft 113 kts 167°
2026-04-23 13:14 51.87549 -2.09958 2748 ft 108 kts 168°
2026-04-23 13:14 51.86811 -2.09888 3154 ft 104 kts 167°
2026-04-23 13:15 51.86096 -2.09800 3457 ft 101 kts 169°
2026-04-23 13:15 51.85395 -2.09924 3710 ft 106 kts 195°
2026-04-23 13:15 51.84811 -2.10699 4002 ft 113 kts 223°
2026-04-23 13:15 51.84333 -2.11736 4202 ft 115 kts 223°
2026-04-23 13:16 51.83845 -2.12734 4545 ft 113 kts 222°
2026-04-23 13:16 51.83355 -2.13699 4953 ft 109 kts 222°
2026-04-23 13:16 51.82882 -2.14660 5303 ft 111 kts 223°
2026-04-23 13:16 51.82359 -2.15571 5628 ft 108 kts 216°
2026-04-23 13:17 51.81856 -2.16545 5962 ft 116 kts 226°
2026-04-23 13:17 51.81368 -2.17606 6212 ft 121 kts 223°
2026-04-23 13:17 51.80850 -2.18651 6550 ft 115 kts 220°
2026-04-23 13:17 51.80350 -2.19632 6886 ft 114 kts 220°
2026-04-23 13:18 51.79851 -2.20626 7247 ft 113 kts 220°
2026-04-23 13:18 51.79329 -2.21566 7586 ft 113 kts 223°
2026-04-23 13:18 51.78832 -2.22571 7885 ft 115 kts 223°
2026-04-23 13:18 51.78351 -2.23611 8175 ft 117 kts 225°
2026-04-23 13:19 51.77840 -2.24654 8425 ft 122 kts 223°
2026-04-23 13:19 51.77267 -2.25807 8489 ft 140 kts 224°
2026-04-23 13:19 51.76626 -2.27111 8480 ft 156 kts 225°
2026-04-23 13:19 51.75943 -2.28530 8463 ft 162 kts 226°
2026-04-23 13:20 51.75251 -2.29992 8432 ft 165 kts 227°
2026-04-23 13:20 51.74546 -2.31449 8429 ft 164 kts 225°
2026-04-23 13:20 51.73816 -2.32864 8425 ft 164 kts 224°
2026-04-23 13:20 51.73096 -2.34283 8425 ft 163 kts 224°
2026-04-23 13:21 51.72375 -2.35689 8422 ft 162 kts 225°
2026-04-23 13:21 51.71644 -2.37070 8420 ft 161 kts 224°
2026-04-23 13:21 51.70916 -2.38443 8421 ft 161 kts 224°
2026-04-23 13:21 51.70205 -2.39818 8422 ft 162 kts 223°
2026-04-23 13:22 51.69480 -2.41257 8419 ft 164 kts 224°
2026-04-23 13:22 51.68766 -2.42657 8410 ft 164 kts 224°
2026-04-23 13:22 51.68049 -2.44080 8411 ft 163 kts 224°
2026-04-23 13:22 51.67347 -2.45504 8409 ft 162 kts 224°
2026-04-23 13:23 51.66645 -2.46911 8409 ft 162 kts 224°
2026-04-23 13:23 51.65943 -2.48332 8407 ft 162 kts 225°
2026-04-23 13:23 51.65235 -2.49740 8406 ft 163 kts 225°
2026-04-23 13:23 51.64851 -2.51493 8393 ft 175 kts 263°
2026-04-23 13:24 51.64945 -2.53457 8397 ft 176 kts 272°
2026-04-23 13:24 51.65090 -2.55408 8399 ft 175 kts 273°
2026-04-23 13:24 51.65215 -2.57354 8398 ft 175 kts 271°
2026-04-23 13:24 51.65333 -2.59307 8399 ft 175 kts 271°
2026-04-23 13:25 51.65448 -2.61249 8399 ft 174 kts 271°
2026-04-23 13:25 51.65559 -2.63187 8403 ft 174 kts 271°
2026-04-23 13:25 51.65670 -2.65133 8398 ft 174 kts 271°
2026-04-23 13:25 51.65780 -2.67078 8397 ft 174 kts 271°
2026-04-23 13:26 51.65892 -2.69011 8396 ft 173 kts 271°
2026-04-23 13:26 51.65999 -2.70938 8401 ft 173 kts 271°
2026-04-23 13:26 51.66082 -2.72880 8399 ft 174 kts 269°
2026-04-23 13:26 51.65972 -2.74774 8389 ft 167 kts 239°
2026-04-23 13:27 51.65372 -2.76324 8392 ft 162 kts 227°
2026-04-23 13:27 51.64706 -2.77780 8397 ft 162 kts 226°
2026-04-23 13:27 51.64033 -2.79243 8397 ft 164 kts 227°
2026-04-23 13:27 51.63374 -2.80709 8397 ft 163 kts 227°
2026-04-23 13:28 51.62714 -2.82196 8518 ft 164 kts 227°
2026-04-23 13:28 51.62053 -2.83685 8518 ft 163 kts 227°
2026-04-23 13:28 51.61390 -2.85165 8517 ft 163 kts 227°
2026-04-23 13:28 51.60938 -2.86156 8514 ft 163 kts 227°
2026-04-23 13:29 51.60286 -2.87646 8515 ft 163 kts 227°
2026-04-23 13:29 51.59636 -2.89137 8508 ft 162 kts 228°
2026-04-23 13:29 51.58989 -2.90615 8514 ft 162 kts 227°
2026-04-23 13:29 51.58361 -2.92108 8510 ft 160 kts 228°
2026-04-23 13:30 51.57730 -2.93587 8506 ft 161 kts 227°
2026-04-23 13:30 51.57114 -2.95067 8501 ft 162 kts 227°
2026-04-23 13:30 51.56495 -2.96575 8496 ft 161 kts 228°
2026-04-23 13:30 51.55867 -2.98073 8491 ft 162 kts 227°
2026-04-23 13:31 51.55245 -2.99575 8489 ft 161 kts 227°
2026-04-23 13:31 51.54632 -3.01083 8485 ft 162 kts 228°
2026-04-23 13:31 51.54010 -3.02587 8476 ft 160 kts 225°
2026-04-23 13:31 51.53346 -3.04012 8482 ft 159 kts 224°
2026-04-23 13:32 51.52656 -3.05424 8466 ft 161 kts 224°
2026-04-23 13:32 51.51958 -3.06838 8378 ft 162 kts 224°
2026-04-23 13:32 51.51261 -3.08251 8378 ft 161 kts 224°
2026-04-23 13:32 51.50564 -3.09658 8382 ft 161 kts 224°
2026-04-23 13:33 51.49864 -3.11074 8382 ft 162 kts 225°
2026-04-23 13:33 51.49187 -3.12520 8382 ft 162 kts 226°
2026-04-23 13:33 51.48523 -3.13965 8201 ft 157 kts 226°
2026-04-23 13:33 51.47908 -3.15355 8000 ft 149 kts 226°
2026-04-23 13:34 51.47329 -3.16705 7801 ft 144 kts 227°
2026-04-23 13:34 51.46772 -3.18021 7607 ft 141 kts 227°
2026-04-23 13:34 51.46217 -3.19306 7410 ft 139 kts 226°
2026-04-23 13:34 51.45662 -3.20579 7217 ft 140 kts 226°
2026-04-23 13:35 51.45109 -3.21853 7025 ft 139 kts 225°
2026-04-23 13:35 51.44565 -3.23130 6839 ft 139 kts 226°
2026-04-23 13:35 51.44025 -3.24411 6628 ft 138 kts 226°
2026-04-23 13:35 51.43497 -3.25679 6426 ft 136 kts 225°
2026-04-23 13:36 51.42966 -3.26926 6224 ft 135 kts 223°
2026-04-23 13:36 51.42400 -3.28121 6022 ft 134 kts 222°
2026-04-23 13:36 51.41828 -3.29311 5828 ft 135 kts 223°
2026-04-23 13:36 51.41273 -3.30500 5654 ft 132 kts 224°
2026-04-23 13:37 51.40725 -3.31640 5437 ft 131 kts 221°
2026-04-23 13:37 51.40143 -3.32813 5240 ft 132 kts 218°
2026-04-23 13:37 51.39556 -3.33874 5066 ft 130 kts 218°
2026-04-23 13:37 51.38955 -3.34946 4871 ft 129 kts 216°
2026-04-23 13:38 51.38344 -3.36000 4700 ft 128 kts 214°
2026-04-23 13:38 51.37701 -3.36891 4539 ft 115 kts 193°
2026-04-23 13:38 51.36998 -3.36910 4364 ft 96 kts 149°
2026-04-23 13:38 51.36588 -3.36122 4170 ft 96 kts 117°
2026-04-23 13:39 51.36366 -3.35086 3923 ft 100 kts 112°
2026-04-23 13:39 51.36187 -3.34013 3885 ft 100 kts 108°
2026-04-23 13:39 51.36053 -3.32898 3884 ft 101 kts 107°
2026-04-23 13:39 51.35904 -3.31836 3983 ft 95 kts 108°
2026-04-23 13:40 51.35756 -3.30796 3978 ft 100 kts 108°
2026-04-23 13:40 51.35629 -3.29687 4000 ft 103 kts 98°
2026-04-23 13:40 51.35934 -3.28606 4058 ft 118 kts 52°
2026-04-23 13:40 51.36776 -3.28193 4050 ft 142 kts
2026-04-23 13:41 51.37699 -3.28898 4039 ft 155 kts 317°
2026-04-23 13:41 51.38308 -3.30305 4076 ft 154 kts 298°
2026-04-23 13:41 51.38837 -3.31821 4042 ft 157 kts 297°
2026-04-23 13:41 51.39309 -3.33417 4024 ft 160 kts 292°
2026-04-23 13:42 51.39698 -3.35064 4017 ft 156 kts 277°
2026-04-23 13:42 51.39579 -3.36667 4035 ft 141 kts 231°
2026-04-23 13:42 51.38906 -3.37641 3987 ft 124 kts 189°
2026-04-23 13:42 51.38118 -3.37616 3978 ft 110 kts 150°
2026-04-23 13:43 51.37620 -3.36742 3949 ft 107 kts 122°
2026-04-23 13:43 51.37281 -3.35700 3952 ft 105 kts 120°
2026-04-23 13:43 51.36942 -3.34677 3917 ft 104 kts 125°
2026-04-23 13:43 51.36513 -3.33732 3892 ft 104 kts 125°
2026-04-23 13:44 51.36120 -3.32792 3922 ft 102 kts 123°
2026-04-23 13:44 51.35742 -3.31853 3934 ft 102 kts 124°
2026-04-23 13:44 51.35356 -3.30909 3951 ft 101 kts 124°
2026-04-23 13:44 51.34970 -3.29971 3970 ft 101 kts 124°
2026-04-23 13:45 51.34598 -3.29014 3997 ft 102 kts 121°
2026-04-23 13:45 51.34496 -3.27888 4010 ft 112 kts 81°
2026-04-23 13:45 51.35070 -3.26928 3977 ft 134 kts 35°
2026-04-23 13:45 51.36039 -3.26815 3993 ft 148 kts 353°
2026-04-23 13:46 51.36940 -3.27681 3986 ft 157 kts 314°
2026-04-23 13:46 51.37633 -3.29050 3931 ft 161 kts 306°
2026-04-23 13:46 51.38263 -3.30530 3931 ft 159 kts 302°
2026-04-23 13:46 51.38843 -3.32034 3931 ft 159 kts 299°
2026-04-23 13:47 51.39392 -3.33578 3952 ft 159 kts 297°
2026-04-23 13:47 51.39811 -3.35197 3951 ft 157 kts 285°
2026-04-23 13:47 51.40139 -3.36856 3843 ft 155 kts 281°
2026-04-23 13:47 51.40432 -3.38524 3624 ft 156 kts 279°
2026-04-23 13:48 51.40717 -3.40199 3398 ft 158 kts 281°
2026-04-23 13:48 51.41017 -3.41911 3181 ft 161 kts 284°
2026-04-23 13:48 51.41331 -3.43648 2947 ft 164 kts 285°
2026-04-23 13:48 51.41663 -3.45406 2694 ft 166 kts 287°
2026-04-23 13:49 51.42006 -3.47158 2507 ft 164 kts 285°
2026-04-23 13:49 51.42296 -3.48920 2462 ft 164 kts 284°
2026-04-23 13:49 51.42569 -3.50723 2290 ft 171 kts 284°
2026-04-23 13:49 51.42855 -3.52551 2203 ft 168 kts 284°
2026-04-23 13:50 51.43156 -3.54373 2136 ft 170 kts 285°
2026-04-23 13:50 51.43458 -3.56168 2128 ft 164 kts 286°
2026-04-23 13:50 51.43812 -3.57840 2166 ft 156 kts 307°
2026-04-23 13:50 51.44581 -3.58942 2164 ft 141 kts 348°
2026-04-23 13:51 51.45472 -3.59040 2191 ft 121 kts 27°
2026-04-23 13:51 51.46107 -3.58352 2171 ft 105 kts 65°
2026-04-23 13:51 51.46310 -3.57295 2185 ft 98 kts 90°
2026-04-23 13:51 51.46301 -3.56213 2236 ft 98 kts 104°
2026-04-23 13:52 51.46042 -3.55191 2244 ft 103 kts 113°
2026-04-23 13:52 51.45710 -3.54140 2176 ft 105 kts 112°
2026-04-23 13:52 51.45427 -3.53071 2139 ft 103 kts 110°
2026-04-23 13:52 51.45173 -3.52032 2176 ft 98 kts 112°
2026-04-23 13:53 51.44881 -3.51042 2147 ft 98 kts 113°
2026-04-23 13:53 51.44607 -3.50120 2119 ft 84 kts 112°
2026-04-23 13:53 51.44381 -3.49326 2020 ft 74 kts 112°
2026-04-23 13:53 51.44160 -3.48644 1976 ft 67 kts 114°
2026-04-23 13:54 51.43935 -3.47967 1951 ft 71 kts 113°
2026-04-23 13:54 51.43720 -3.47237 1912 ft 74 kts 112°
2026-04-23 13:54 51.43496 -3.46507 1843 ft 74 kts 112°
2026-04-23 13:54 51.43262 -3.45754 1711 ft 77 kts 113°
2026-04-23 13:55 51.43012 -3.44976 1569 ft 80 kts 114°
2026-04-23 13:55 51.42745 -3.44204 1482 ft 77 kts 113°
2026-04-23 13:55 51.42499 -3.43436 1397 ft 78 kts 111°
2026-04-23 13:55 51.42261 -3.42643 1218 ft 81 kts 112°
2026-04-23 13:56 51.42007 -3.41843 1098 ft 79 kts 113°
2026-04-23 13:56 51.41750 -3.41077 946 ft 79 kts 113°
2026-04-23 13:56 51.41506 -3.40261 864 ft 83 kts 111°
2026-04-23 13:56 51.41248 -3.39426 788 ft 84 kts 113°
2026-04-23 13:57 51.40982 -3.38608 682 ft 79 kts 110°
2026-04-23 13:57 51.40735 -3.37814 565 ft 80 kts 110°
2026-04-23 13:57 51.40487 -3.37032 479 ft 78 kts 108°
2026-04-23 13:57 51.40252 -3.36249 550 ft 72 kts 106°
2026-04-23 13:58 51.40013 -3.35510 815 ft 81 kts 113°
2026-04-23 13:58 51.39745 -3.34670 1095 ft 86 kts 111°
2026-04-23 13:58 51.39499 -3.33797 1384 ft 87 kts 112°
2026-04-23 13:58 51.39227 -3.32922 1701 ft 89 kts 115°
2026-04-23 13:59 51.38963 -3.32099 1968 ft 76 kts 117°
2026-04-23 13:59 51.38751 -3.31364 2112 ft 71 kts 113°
2026-04-23 13:59 51.38574 -3.30636 2196 ft 73 kts 112°
2026-04-23 13:59 51.38392 -3.29899 2376 ft 68 kts 114°
2026-04-23 14:00 51.38256 -3.29434 2468 ft 69 kts 116°
2026-04-23 14:00 51.37957 -3.28535 2660 ft 69 kts 118°
2026-04-23 14:00 51.37726 -3.27856 2800 ft 69 kts 118°
2026-04-23 14:00 51.37489 -3.27180 2942 ft 69 kts 121°
2026-04-23 14:01 51.37227 -3.26530 3026 ft 71 kts 117°
2026-04-23 14:01 51.36985 -3.25844 3114 ft 70 kts 112°
2026-04-23 14:01 51.36841 -3.25095 3195 ft 70 kts 108°
2026-04-23 14:01 51.36733 -3.24342 3318 ft 70 kts 103°
2026-04-23 14:02 51.36812 -3.23573 3430 ft 77 kts 67°
2026-04-23 14:02 51.37297 -3.23062 3533 ft 96 kts 23°
2026-04-23 14:02 51.37955 -3.22874 3857 ft 93 kts 32°
2026-04-23 14:02 51.38620 -3.22500 4030 ft 111 kts 34°
2026-04-23 14:03 51.39392 -3.21986 4111 ft 130 kts 33°
2026-04-23 14:03 51.40309 -3.21486 4108 ft 147 kts 30°
2026-04-23 14:03 51.41287 -3.20865 4048 ft 153 kts 32°
2026-04-23 14:03 51.42259 -3.20233 4041 ft 153 kts 32°
2026-04-23 14:04 51.43272 -3.19574 3991 ft 156 kts 31°
2026-04-23 14:04 51.44272 -3.18936 3991 ft 157 kts 31°
2026-04-23 14:04 51.45290 -3.18291 3993 ft 157 kts 31°
2026-04-23 14:04 51.46342 -3.17765 3982 ft 158 kts 24°
2026-04-23 14:05 51.47404 -3.17341 3991 ft 157 kts 23°
2026-04-23 14:05 51.48472 -3.16924 3987 ft 158 kts 22°
2026-04-23 14:05 51.49540 -3.16503 3989 ft 158 kts 23°
2026-04-23 14:05 51.50606 -3.16088 3983 ft 157 kts 22°
2026-04-23 14:06 51.51661 -3.15678 3988 ft 156 kts 23°
2026-04-23 14:06 51.52728 -3.15272 3987 ft 158 kts 22°
2026-04-23 14:06 51.53799 -3.14868 3974 ft 159 kts 22°
2026-04-23 14:06 51.54867 -3.14448 3985 ft 157 kts 22°
2026-04-23 14:07 51.55931 -3.14021 3986 ft 158 kts 23°
2026-04-23 14:07 51.58050 -3.13189 4071 ft 156 kts 23°
2026-04-23 14:07 51.59097 -3.12785 4079 ft 157 kts 22°
2026-04-23 14:08 51.60156 -3.12366 4080 ft 156 kts 23°
2026-04-23 14:08 51.61209 -3.11950 4070 ft 153 kts 22°
2026-04-23 14:08 51.62221 -3.11558 4099 ft 150 kts 23°
2026-04-23 14:08 51.63250 -3.11157 4083 ft 154 kts 23°
2026-04-23 14:09 51.64259 -3.10763 4102 ft 148 kts 24°
2026-04-23 14:09 51.65271 -3.10410 4100 ft 150 kts 22°
2026-04-23 14:09 51.66270 -3.10035 4113 ft 147 kts 22°
2026-04-23 14:09 51.67283 -3.09642 4109 ft 153 kts 23°
2026-04-23 14:10 51.68320 -3.09230 4075 ft 150 kts 22°
2026-04-23 14:10 51.69278 -3.08865 4124 ft 143 kts 24°
2026-04-23 14:10 51.70276 -3.08498 4127 ft 150 kts 22°
2026-04-23 14:10 51.71304 -3.08104 4123 ft 153 kts 23°
2026-04-23 14:11 51.72345 -3.07700 4118 ft 156 kts 23°
2026-04-23 14:11 51.73401 -3.07290 4122 ft 156 kts 23°
2026-04-23 14:11 51.74441 -3.06811 4115 ft 151 kts 37°
2026-04-23 14:11 51.75064 -3.05621 4116 ft 134 kts 82°
2026-04-23 14:12 51.74947 -3.04237 4129 ft 125 kts 116°
2026-04-23 14:12 51.74555 -3.02977 4129 ft 127 kts 120°
2026-04-23 14:12 51.74153 -3.01710 4132 ft 128 kts 120°
2026-04-23 14:12 51.73971 -3.00306 4112 ft 136 kts 85°
2026-04-23 14:13 51.74550 -2.99031 4115 ft 153 kts 41°
2026-04-23 14:13 51.75625 -2.98711 4119 ft 167 kts 357°
2026-04-23 14:13 51.76696 -2.99497 4126 ft 171 kts 332°
2026-04-23 14:13 51.77683 -3.00532 4166 ft 167 kts 330°
2026-04-23 14:14 51.78564 -3.01054 4804 ft 104 kts 14°
2026-04-23 14:14 51.79404 -3.00985 4859 ft 133 kts 15°
2026-04-23 14:14 51.80322 -3.00832 4890 ft 137 kts 18°
2026-04-23 14:14 51.81144 -3.00135 4308 ft 150 kts 72°
2026-04-23 14:15 51.81495 -2.98617 4044 ft 127 kts 79°
2026-04-23 14:15 51.81757 -2.97366 4084 ft 111 kts 88°
2026-04-23 14:15 51.81368 -2.96522 4181 ft 105 kts 143°
2026-04-23 14:15 51.80745 -2.95893 4209 ft 98 kts 143°
2026-04-23 14:16 51.80221 -2.95328 4193 ft 85 kts 129°
2026-04-23 14:16 51.80178 -2.94447 4200 ft 87 kts 71°
2026-04-23 14:16 51.80734 -2.94085 4184 ft 98 kts 359°
2026-04-23 14:16 51.81227 -2.94806 4154 ft 106 kts 283°
2026-04-23 14:17 51.81405 -2.96063 4270 ft 115 kts 277°
2026-04-23 14:17 51.81549 -2.97381 4374 ft 130 kts 272°
2026-04-23 14:17 51.81687 -2.98929 4504 ft 147 kts 281°
2026-04-23 14:17 51.82099 -3.00503 4551 ft 149 kts 291°
2026-04-23 14:18 51.82566 -3.01817 4678 ft 128 kts 318°
2026-04-23 14:18 51.83338 -3.02274 4723 ft 118 kts 13°
2026-04-23 14:18 51.84028 -3.01787 4777 ft 101 kts 58°
2026-04-23 14:18 51.84484 -3.01102 4816 ft 77 kts 59°
2026-04-23 14:19 51.84862 -3.00609 4782 ft 75 kts 57°
2026-04-23 14:19 51.85311 -2.99958 4894 ft 88 kts 60°
2026-04-23 14:19 51.85726 -2.99161 5092 ft 99 kts 69°
2026-04-23 14:19 51.86134 -2.98092 5144 ft 122 kts 70°
2026-04-23 14:20 51.86406 -2.97258 5127 ft 132 kts 72°
2026-04-23 14:20 51.86845 -2.95941 5128 ft 130 kts 72°
2026-04-23 14:20 51.87276 -2.94675 5137 ft 127 kts 72°
2026-04-23 14:20 51.87700 -2.93412 5125 ft 128 kts 71°
2026-04-23 14:21 51.88121 -2.92143 5111 ft 128 kts 72°
2026-04-23 14:21 51.88525 -2.90859 5112 ft 128 kts 72°
2026-04-23 14:21 51.88920 -2.89564 5104 ft 128 kts 72°
2026-04-23 14:21 51.89311 -2.88287 5106 ft 125 kts 72°
2026-04-23 14:22 51.89690 -2.87042 5103 ft 121 kts 72°
2026-04-23 14:22 51.90068 -2.85843 5100 ft 119 kts 72°
2026-04-23 14:22 51.90453 -2.84673 5098 ft 117 kts 71°
2026-04-23 14:22 51.90833 -2.83467 4949 ft 121 kts 72°
2026-04-23 14:23 51.91151 -2.82234 4740 ft 116 kts 90°
2026-04-23 14:23 51.91014 -2.81022 4473 ft 110 kts 112°
2026-04-23 14:23 51.90764 -2.79864 4269 ft 108 kts 112°
2026-04-23 14:23 51.90504 -2.78720 4068 ft 108 kts 113°
2026-04-23 14:24 51.90245 -2.77586 3863 ft 106 kts 113°
2026-04-23 14:24 51.89993 -2.76469 3662 ft 105 kts 112°
2026-04-23 14:24 51.89735 -2.75369 3462 ft 105 kts 112°
2026-04-23 14:24 51.89468 -2.74263 3253 ft 106 kts 110°
2026-04-23 14:25 51.89212 -2.73151 3068 ft 107 kts 109°
2026-04-23 14:25 51.88927 -2.72042 2963 ft 107 kts 109°
2026-04-23 14:25 51.88677 -2.70878 2965 ft 111 kts 104°
2026-04-23 14:25 51.88476 -2.69656 2959 ft 112 kts 103°
2026-04-23 14:26 51.88278 -2.68418 2954 ft 116 kts 104°
2026-04-23 14:26 51.88076 -2.67148 2942 ft 115 kts 102°
2026-04-23 14:26 51.87886 -2.65916 2951 ft 110 kts 103°
2026-04-23 14:26 51.87702 -2.64757 2963 ft 107 kts 103°
2026-04-23 14:27 51.87518 -2.63595 2953 ft 105 kts 103°
2026-04-23 14:27 51.87342 -2.62462 2950 ft 102 kts 103°
2026-04-23 14:27 51.87172 -2.61343 2952 ft 103 kts 103°
2026-04-23 14:27 51.86998 -2.60203 2943 ft 105 kts 103°
2026-04-23 14:28 51.86831 -2.59064 2947 ft 104 kts 103°
2026-04-23 14:28 51.86669 -2.57923 2948 ft 105 kts 99°
2026-04-23 14:28 51.86649 -2.56704 2954 ft 112 kts 88°
2026-04-23 14:28 51.86695 -2.55418 2921 ft 116 kts 88°
2026-04-23 14:29 51.86769 -2.54149 2954 ft 110 kts 86°
2026-04-23 14:29 51.86858 -2.52878 2891 ft 116 kts 85°
2026-04-23 14:29 51.86959 -2.51602 2712 ft 113 kts 85°
2026-04-23 14:29 51.87046 -2.50322 2494 ft 115 kts 85°
2026-04-23 14:30 51.87124 -2.49059 2452 ft 114 kts 86°
2026-04-23 14:30 51.87224 -2.47768 2417 ft 116 kts 84°
2026-04-23 14:30 51.87327 -2.46487 2429 ft 114 kts 84°
2026-04-23 14:30 51.87426 -2.45231 2488 ft 111 kts 84°
2026-04-23 14:31 51.87531 -2.43999 2502 ft 111 kts 83°
2026-04-23 14:31 51.87651 -2.42802 2604 ft 105 kts 84°
2026-04-23 14:31 51.87744 -2.41605 2447 ft 109 kts 87°
2026-04-23 14:31 51.87792 -2.40373 2405 ft 109 kts 88°
2026-04-23 14:32 51.87843 -2.39146 2315 ft 114 kts 87°
2026-04-23 14:32 51.87890 -2.37840 2063 ft 117 kts 89°
2026-04-23 14:32 51.87936 -2.36543 1891 ft 114 kts 86°
2026-04-23 14:32 51.88047 -2.35295 1699 ft 111 kts 84°
2026-04-23 14:33 51.88164 -2.34082 1657 ft 108 kts 83°
2026-04-23 14:33 51.88287 -2.32909 1639 ft 105 kts 81°
2026-04-23 14:33 51.88434 -2.31747 1651 ft 106 kts 84°
2026-04-23 14:33 51.88512 -2.30606 1642 ft 90 kts 85°
2026-04-23 14:34 51.88570 -2.29642 1567 ft 84 kts 85°
2026-04-23 14:34 51.88625 -2.28700 1410 ft 84 kts 85°
2026-04-23 14:34 51.88690 -2.27739 1234 ft 88 kts 86°
2026-04-23 14:34 51.88757 -2.26757 1111 ft 87 kts 86°
2026-04-23 14:35 51.88791 -2.25801 1011 ft 80 kts 86°
2026-04-23 14:35 51.88845 -2.24921 907 ft 80 kts 84°
2026-04-23 14:35 51.88932 -2.24057 823 ft 78 kts 84°
2026-04-23 14:35 51.88970 -2.23188 694 ft 75 kts 89°
2026-04-23 14:36 51.89014 -2.22342 557 ft 77 kts 84°
2026-04-23 14:36 51.89099 -2.21494 477 ft 76 kts 82°
2026-04-23 14:36 51.89185 -2.20649 619 ft 76 kts 91°
2026-04-23 14:36 51.89229 -2.19793 776 ft 77 kts 88°
2026-04-23 14:37 51.89273 -2.18927 950 ft 77 kts 91°
2026-04-23 14:37 51.89238 -2.17985 911 ft 88 kts 92°
2026-04-23 14:37 51.89237 -2.17070 1074 ft 78 kts 88°
2026-04-23 14:37 51.89252 -2.16179 1128 ft 81 kts 89°
2026-04-23 14:38 51.89358 -2.15268 1171 ft 88 kts 55°
2026-04-23 14:38 51.89999 -2.15034 1240 ft 108 kts
2026-04-23 14:38 51.90817 -2.15181 1126 ft 123 kts 353°
2026-04-23 14:38 51.91500 -2.16060 1131 ft 135 kts 304°
2026-04-23 14:39 51.91651 -2.17573 1154 ft 137 kts 268°
2026-04-23 14:39 51.91551 -2.19137 1105 ft 143 kts 261°
2026-04-23 14:39 51.91379 -2.20730 1078 ft 143 kts 255°
2026-04-23 14:39 51.90874 -2.22023 909 ft 133 kts 214°
2026-04-23 14:40 51.90078 -2.22454 750 ft 113 kts 175°
2026-04-23 14:40 51.89335 -2.22371 708 ft 102 kts 156°
2026-04-23 14:40 51.88927 -2.21603 588 ft 88 kts 99°
2026-04-23 14:40 51.89050 -2.20675 540 ft 85 kts 76°
2026-04-23 14:41 51.89211 -2.19746 429 ft 87 kts 88°
2026-04-23 14:41 51.89271 -2.18786 278 ft 83 kts 87°
2026-04-23 14:41 51.89329 -2.17911 169 ft 71 kts 87°
2026-04-23 14:41 51.89374 -2.17206 90 ft 47 kts 85°
2026-04-23 14:42 51.89403 -2.16823 91 ft 26 kts 84°
2026-04-23 14:42 51.89417 -2.16611 91 ft 8 kts 99°
2026-04-23 14:42 51.89352 -2.16570 91 ft 18 kts 171°
2026-04-23 14:42 51.89228 -2.16551 91 ft 17 kts 174°
2026-04-23 14:43 51.89119 -2.16538 90 ft 15 kts 181°
2026-04-23 14:43 51.89011 -2.16515 88 ft 15 kts 174°
2026-04-23 14:43 51.88954 -2.16466 89 ft 8 kts 91°
2026-04-23 14:43 51.88955 -2.16399 88 ft 5 kts 117°
2026-04-23 14:44 51.88932 -2.16381 92 ft 5 kts 13°
2026-04-23 14:44 51.88937 -2.16380 92 ft 0 kts